KB3GVC-13 Weather Reports


time (UTC)temp
F
wind
direction
speed
knots
gust
knots
rain 1hr
in
rain 24hr
in
rain mn
in
humidity
%
barometer
mb
20260504110537 49 278 0.0 0.9 0.00 0.00 0.00 84 1016.4
20260504100454 45 197 0.0 0.9 0.00 0.00 0.00 87 1016.3
20260504081847 42 222 0.0 0.9 0.00 0.00 0.00 89 1016.5
20260504081343 42 222 0.0 0.0 0.00 0.00 0.00 88 1016.7
20260504080839 42 229 0.0 0.0 0.00 0.00 0.00 87 1016.6
20260504080336 42 229 0.0 0.0 0.00 0.00 0.00 86 1016.6
20260504070303 43 229 0.0 0.0 0.00 0.00 0.00 83 1016.6
20260504060224 42 292 0.0 0.0 0.00 0.00 0.00 83 1016.2
20260504050652 43 292 0.0 0.0 0.00 0.00 0.00 79 1016.7
20260504050149 43 292 0.0 0.0 0.00 0.00 0.00 79 1016.6
20260504045647 43 292 0.0 0.0 0.00 0.00 0.00 78 1016.5
20260504045146 44 292 0.0 0.0 0.00 0.00 0.00 78 1016.6
20260504044644 43 292 0.0 0.0 0.00 0.00 0.00 78 1016.6
20260504044140 42 292 0.0 0.9 0.00 0.00 0.00 80 1016.5
20260504043638 41 292 0.0 0.0 0.00 0.00 0.00 83 1016.4
20260504043135 42 292 0.0 0.0 0.00 0.00 0.00 83 1016.5
20260504042632 42 292 0.0 0.0 0.00 0.00 0.00 84 1016.6
20260504042129 42 292 0.0 0.0 0.00 0.00 0.00 84 1016.2
20260504041624 42 292 0.0 0.0 0.00 0.00 0.00 84 1016.1
20260504041121 42 292 0.0 0.0 0.00 0.00 0.00 84 1016.2
20260504040618 42 292 0.0 0.0 0.00 0.00 0.00 83 1015.9
20260504040115 42 292 0.0 0.0 0.00 0.00 0.00 82 1016.2
20260504035612 43 292 0.0 0.0 0.00 0.00 0.00 80 1016.1
20260504035108 43 292 0.0 0.0 0.00 0.00 0.00 80 1015.9
20260504034606 43 292 0.0 0.0 0.00 0.00 0.00 80 1016.1
20260504034102 42 292 0.0 0.0 0.00 0.00 0.00 81 1015.8
20260504033601 43 292 0.0 0.0 0.00 0.00 0.00 81 1015.9
20260504033058 42 292 0.0 0.0 0.00 0.00 0.00 82 1016.1
20260504032554 43 292 0.0 0.0 0.00 0.00 0.00 80 1015.8
20260504032051 44 292 0.0 0.0 0.00 0.00 0.00 78 1015.9
20260504031548 44 292 0.0 0.0 0.00 0.00 0.00 77 1015.7
20260504031045 44 292 0.0 0.0 0.00 0.00 0.00 77 1015.8
20260504030542 44 292 0.0 0.9 0.00 0.00 0.00 77 1015.7
20260504030038 44 292 0.0 0.0 0.00 0.00 0.00 77 1015.8
20260504025536 44 292 0.0 0.0 0.00 0.00 0.00 75 1015.6
20260504025032 44 292 0.0 0.0 0.00 0.00 0.00 74 1015.8
20260504024529 44 292 0.0 0.0 0.00 0.00 0.00 74 1015.6
20260504024026 44 292 0.0 0.0 0.00 0.00 0.00 74 1015.9
20260504023522 45 292 0.0 0.0 0.00 0.00 0.00 74 1015.9
20260504023018 45 292 0.0 0.0 0.00 0.00 0.00 71 1015.7
20260504022514 46 292 0.0 0.0 0.00 0.00 0.00 70 1015.8
20260504022011 46 292 0.0 0.0 0.00 0.00 0.00 69 1015.7
20260504021509 46 292 0.0 0.0 0.00 0.00 0.00 70 1015.7
20260504021005 46 292 0.0 0.0 0.00 0.00 0.00 68 1015.6
20260504020502 46 292 0.0 0.0 0.00 0.00 0.00 69 1015.9
20260504015959 46 292 0.0 0.0 0.00 0.00 0.00 69 1015.7
20260504015455 46 292 0.0 0.0 0.00 0.00 0.00 69 1015.9
20260504014951 45 292 0.0 0.0 0.00 0.00 0.00 69 1015.7
20260504014447 46 292 0.0 0.0 0.00 0.00 0.00 69 1015.7
20260504013944 46 292 0.0 0.0 0.00 0.00 0.00 69 1015.5
20260504013443 46 292 0.0 0.0 0.00 0.00 0.00 66 1015.6
20260504012938 47 292 0.0 0.0 0.00 0.00 0.00 65 1015.6
20260504012437 47 292 0.0 0.0 0.00 0.00 0.00 64 1015.4
20260504011934 48 292 0.0 0.0 0.00 0.00 0.00 63 1015.5
20260504011430 48 292 0.0 0.0 0.00 0.00 0.00 61 1015.5
20260504010926 48 292 0.0 0.0 0.00 0.00 0.00 60 1015.3
20260504010422 49 292 0.0 0.0 0.00 0.00 0.00 59 1015.5
20260504005919 49 292 0.0 0.0 0.00 0.00 0.00 59 1015.2
20260504005415 50 292 0.0 0.0 0.00 0.00 0.00 56 1015.2
20260504004913 50 292 0.0 0.0 0.00 0.00 0.00 54 1015.2
20260504004411 49 292 0.0 0.0 0.00 0.00 0.00 54 1015.1
20260504003907 49 292 0.0 0.0 0.00 0.00 0.00 57 1015.2
20260504003404 50 292 0.0 0.0 0.00 0.00 0.00 53 1015.0
20260504002900 51 292 0.0 0.0 0.00 0.00 0.00 51 1015.0
20260504002357 51 292 0.0 0.0 0.00 0.00 0.00 51 1014.9
20260504001855 53 292 0.0 0.0 0.00 0.00 0.00 49 1014.9
20260504001352 53 292 0.0 0.0 0.00 0.00 0.00 47 1014.8
20260504000849 54 292 0.0 0.0 0.00 0.00 0.00 44 1014.6
20260504000346 56 292 0.0 0.0 0.00 0.00 0.00 42 1014.7
20260503235843 56 292 0.0 0.9 0.00 0.00 0.00 39 1014.5
20260503235341 57 263 0.0 0.9 0.00 0.00 0.00 38 1014.6
20260503234838 58 268 0.0 0.0 0.00 0.00 0.00 38 1014.4
20260503234336 58 252 0.0 2.6 0.00 0.00 0.00 37 1014.6
20260503233833 58 243 0.0 2.6 0.00 0.00 0.00 37 1014.6
20260503233329 59 232 0.9 3.5 0.00 0.00 0.00 37 1014.5
20260503232826 59 196 0.9 5.2 0.00 0.00 0.00 35 1014.3
20260503232323 60 269 3.5 3.5 0.00 0.00 0.00 34 1014.1
20260503231821 60 278 1.7 2.6 0.00 0.00 0.00 34 1014.3
20260503231318 61 286 3.5 5.2 0.00 0.00 0.00 34 1014.4
20260503230813 61 190 1.7 2.6 0.00 0.00 0.00 33 1014.2
20260503230311 61 257 4.3 6.1 0.00 0.00 0.00 32 1014.2
20260503225809 61 285 7.0 8.7 0.00 0.00 0.00 32 1014.3
20260503225304 62 285 2.6 7.8 0.00 0.00 0.00 32 1014.2
20260503224800 61 205 3.5 7.0 0.00 0.00 0.00 32 1014.3
20260503224258 61 263 3.5 7.8 0.00 0.00 0.00 32 1014.2
20260503223755 61 291 2.6 9.6 0.00 0.00 0.00 32 1014.4
20260503223253 62 223 1.7 8.7 0.00 0.00 0.00 32 1014.2
20260503222749 62 283 4.3 8.7 0.00 0.00 0.00 32 1014.3
20260503222247 62 214 5.2 8.7 0.00 0.00 0.00 31 1014.1
20260503221745 62 209 3.5 9.6 0.00 0.00 0.00 31 1014.4
20260503221243 63 253 4.3 6.1 0.00 0.00 0.00 31 1014.3
20260503220739 62 300 3.5 8.7 0.00 0.00 0.00 31 1014.4
20260503220236 62 339 7.0 9.6 0.00 0.00 0.00 31 1014.2
20260503215733 62 206 5.2 7.0 0.00 0.00 0.00 30 1014.3
20260503215230 62 323 0.9 5.2 0.00 0.00 0.00 32 1014.4
20260503214728 61 276 3.5 7.0 0.00 0.00 0.00 31 1014.3
20260503214224 62 263 7.0 11.3 0.00 0.00 0.00 31 1014.5
20260503213723 62 333 5.2 7.8 0.00 0.00 0.00 30 1014.2
20260503213219 62 222 4.3 7.8 0.00 0.00 0.00 31 1014.6
20260503212716 62 266 5.2 8.7 0.00 0.00 0.00 30 1014.3
20260503212214 62 291 1.7 9.6 0.00 0.00 0.00 31 1014.2
20260503211712 62 275 4.3 8.7 0.00 0.00 0.00 31 1014.3
20260503211207 62 287 2.6 6.1 0.00 0.00 0.00 32 1014.3
20260503210703 61 291 3.5 7.8 0.00 0.00 0.00 33 1014.3
20260503210201 62 232 5.2 9.6 0.00 0.00 0.00 32 1014.4
20260503205655 62 250 7.0 11.3 0.00 0.00 0.00 31 1014.3
20260503205152 62 259 4.3 9.6 0.00 0.00 0.00 33 1014.3
20260503204649 61 300 2.6 11.3 0.00 0.00 0.00 33 1014.2
20260503204147 62 308 5.2 8.7 0.00 0.00 0.00 32 1014.4
20260503203643 61 300 2.6 5.2 0.00 0.00 0.00 35 1014.5
20260503203141 61 217 2.6 8.7 0.00 0.00 0.00 33 1014.4
20260503202638 61 140 4.3 7.8 0.00 0.00 0.00 32 1014.4
20260503202136 61 240 8.7 12.2 0.00 0.00 0.00 32 1014.6
20260503201634 62 303 6.1 8.7 0.00 0.00 0.00 33 1014.7
20260503201131 60 273 7.0 12.2 0.00 0.00 0.00 32 1014.8
20260503200627 59 337 1.7 7.8 0.00 0.00 0.00 36 1014.8
20260503200124 59 223 3.5 8.7 0.00 0.00 0.00 34 1014.9
20260503195621 61 297 7.0 9.6 0.00 0.00 0.00 33 1014.8
20260503195118 61 273 5.2 15.6 0.00 0.00 0.00 34 1014.8
20260503194615 60 241 3.5 11.3 0.00 0.00 0.00 34 1014.6
20260503194109 60 60 4.3 13.0 0.00 0.00 0.00 33 1014.8
20260503193607 60 353 4.3 9.6 0.00 0.00 0.00 35 1014.9
20260503193102 60 30 3.5 7.0 0.00 0.00 0.00 34 1014.9
20260503192558 61 298 6.1 8.7 0.00 0.00 0.00 33 1015.1
20260503192054 59 21 5.2 8.7 0.00 0.00 0.00 34 1015.1
20260503191551 59 291 3.5 13.0 0.00 0.00 0.00 33 1015.3
20260503191048 60 291 3.5 8.7 0.00 0.00 0.00 34 1015.2
20260503190545 59 311 3.5 9.6 0.00 0.00 0.00 34 1015.1
20260503190042 59 312 7.8 13.9 0.00 0.00 0.00 34 1015.1
20260503185538 59 266 6.1 8.7 0.00 0.00 0.00 34 1015.3
20260503185038 59 205 7.8 12.2 0.00 0.00 0.00 35 1015.2
20260503184534 58 312 5.2 11.3 0.00 0.00 0.00 35 1015.3
20260503184031 58 223 5.2 11.3 0.00 0.00 0.00 36 1015.2
20260503183528 59 307 5.2 7.8 0.00 0.00 0.00 35 1015.4
20260503183025 59 276 2.6 11.3 0.00 0.00 0.00 37 1015.4
20260503182523 59 329 1.7 5.2 0.00 0.00 0.00 36 1015.6
20260503182021 58 292 4.3 9.6 0.00 0.00 0.00 36 1015.5
20260503181518 58 0 4.3 8.7 0.00 0.00 0.00 37 1015.5
20260503181014 58 311 0.9 6.1 0.00 0.00 0.00 39 1015.6
20260503180511 57 320 4.3 11.3 0.00 0.00 0.00 35 1015.7
20260503180008 58 292 7.8 12.2 0.00 0.00 0.00 35 1015.8
20260503175506 57 269 5.2 9.6 0.00 0.00 0.00 35 1015.5
20260503175002 57 314 6.1 9.6 0.00 0.00 0.00 36 1015.7
20260503174500 57 282 6.1 11.3 0.00 0.00 0.00 35 1015.7
20260503173955 56 324 10.4 14.8 0.00 0.00 0.00 35 1015.8
20260503173451 56 275 6.1 12.2 0.00 0.00 0.00 36 1015.9
20260503172948 55 270 4.3 9.6 0.00 0.00 0.00 36 1016.0
20260503172446 56 225 3.5 7.8 0.00 0.00 0.00 37 1015.5
20260503171942 56 262 6.1 8.7 0.00 0.00 0.00 35 1015.8
20260503171439 57 242 7.8 11.3 0.00 0.00 0.00 37 1016.2
20260503170937 56 321 3.5 9.6 0.00 0.00 0.00 38 1015.9
20260503170432 56 288 4.3 12.2 0.00 0.00 0.00 38 1015.8
20260503150825 51 220 5.2 7.8 0.00 0.00 0.00 48 1016.5
20260503150321 52 308 7.8 9.6 0.00 0.00 0.00 46 1016.5
20260503140245 51 240 3.5 12.2 0.00 0.00 0.00 50 1016.4
20260503131215 48 300 3.5 9.6 0.00 0.00 0.00 57 1016.2
20260503130713 49 243 3.5 9.6 0.00 0.00 0.00 57 1016.0
20260503130210 50 314 4.3 7.0 0.00 0.00 0.00 57 1015.9
20260503120135 47 288 3.5 6.1 0.00 0.00 0.00 65 1015.8